Temperature
12 12 12 12 12 12 12 12 12 12 12 12 12 11 11 11 11 11 11 11 10 10 10 10 10 10 9 9 9 9 9 9 9 9 9 9 8 8 8 8 8 8 8
12 12 12 12 12 12 12 12 12 12 12 12 11 11 11 11 11 11 10 10 10 10 10 10 10 9 9 9 9 9 9 9 9 9 8 8 8 8 8 7 7 7 7
12 12 12 12 12 12 12 12 12 11 11 11 11 11 11 11 10 10 10 10 10 10 10 9 9 9 9 9 9 9 9 9 8 8 8 8 7 7 7 7 7 7 7
11 11 11 11 11 11 11 11 11 11 11 11 11 11 11 10 10 10 10 10 9 9 9 9 9 9 9 9 8 8 8 8 8 8 8 7 7 7 7 7 7 7 7
11 11 11 11 11 11 11 11 11 11 11 11 11 10 10 10 10 10 10 9 9 9 9 9 9 9 8 8 8 8 8 8 8 7 7 7 7 7 6 6 6 6 6
11 11 11 11 11 11 11 11 11 11 10 10 10 10 10 10 10 9 9 9 9 9 8 8 8 8 8 8 8 8 7 7 7 7 7 7 6 6 6 6 6 5 5
10 11 11 11 11 11 11 10 10 10 10 10 10 10 9 9 9 9 9 9 8 8 8 8 8 8 8 8 7 7 7 7 7 7 7 6 6 6 5 5 5 5 5
10 10 10 10 10 10 10 10 10 10 10 10 9 9 9 9 9 9 8 8 8 8 8 8 8 7 7 7 7 7 7 7 7 6 6 6 5 5 5 5 5 5 4
10 10 10 10 10 10 10 10 10 10 9 9 9 8 8 8 8 8 8 8 8 8 7 7 7 7 7 7 7 7 6 6 6 6 5 5 5 5 4 4 4 4 4
9 9 9 9 9 9 9 9 9 9 9 9 8 8 8 8 8 7 8 7 7 7 7 7 7 6 6 6 6 6 6 6 5 5 5 4 4 4 4 4 4 4 4
9 9 9 9 9 9 9 9 9 9 9 8 8 8 8 8 7 7 7 7 7 7 6 6 6 6 6 6 6 5 5 5 5 5 4 4 4 4 4 4 4 4 4
8 8 8 8 8 8 8 8 8 8 8 8 8 8 7 7 7 7 6 6 6 6 6 6 6 6 5 5 5 5 5 5 5 4 4 4 4 4 4 3 3 3 3
8 8 8 8 8 8 8 8 8 8 8 7 7 7 7 7 7 7 6 6 6 6 6 5 5 5 5 5 5 5 5 4 4 4 4 4 3 3 3 3 3 3 3
7 7 7 7 7 7 7 7 7 7 7 7 7 7 7 7 6 6 6 6 5 5 5 5 5 5 5 5 4 4 4 4 4 4 3 3 3 3 3 2 2 2 2
7 7 7 7 7 7 7 7 7 7 7 7 6 6 6 6 6 6 5 5 5 4 4 4 4 4 4 4 4 4 4 4 3 3 3 3 3 2 2 2 2 2 2
6 6 6 6 6 6 6 6 6 6 6 6 6 6 6 6 5 5 5 5 4 4 3 4 4 4 4 4 4 3 3 3 3 3 3 3 2 2 2 2 2 2 2
6 6 6 6 6 6 6 6 6 6 6 6 6 5 5 5 5 5 5 4 4 3 3 4 4 4 3 3 3 3 3 3 3 3 3 2 2 2 2 2 1 1 1
5 5 5 5 5 5 5 5 5 5 5 5 5 5 5 5 5 4 4 4 4 3 3 3 3 3 3 3 3 3 3 3 3 2 2 2 2 2 1 1 1 1 1
5 5 5 5 5 5 5 5 5 5 5 5 5 5 4 4 4 4 4 4 3 3 3 2 2 3 2 2 2 2 2 2 2 2 2 2 2 1 1 1 1 1 1
4 5 5 5 4 4 4 4 4 4 4 4 4 4 4 4 4 4 3 3 3 3 2 2 2 2 2 2 2 2 2 2 2 2 2 2 1 1 1 1 1 0 0
4 4 4 4 4 4 4 4 4 4 4 4 4 3 3 3 3 3 3 3 3 2 2 2 2 2 2 1 1 1 1 1 1 1 1 1 1 1 1 1 0 0 -0
3 3 3 3 3 3 3 3 3 3 3 3 3 3 3 3 3 2 2 2 2 2 2 1 1 1 1 1 0 0 0 -0 -0 0 0 1 1 1 1 0 0 -0 -0
2 3 3 3 3 3 3 3 3 3 2 2 2 2 2 2 2 2 2 2 2 1 1 1 1 1 0 0 -0 -0 -0 -1 -1 -0 -1 -0 0 1 0 0 -0 -1 -1
2 2 2 2 2 2 2 2 2 2 2 2 2 2 2 1 2 2 2 1 1 1 1 1 0 0 0 -0 -0 -1 -1 -1 -1 -1 -1 -1 -0 -0 0 0 -0 -1 -1
1 2 2 2 2 2 2 1 1 1 1 1 1 1 1 1 1 1 1 1 1 1 1 0 0 -0 -0 -0 -1 -1 -1 -1 -2 -1 -2 -2 -2 -1 -0 -0 -0 -1 -1
1 1 1 1 1 1 1 1 1 1 1 1 1 0 1 1 1 1 1 1 1 1 0 0 0 -0 -0 -0 -1 -1 -2 -2 -3 -3 -2 -3 -3 -3 -2 -1 -1 -1 -1
Wind_Speed
4 4 4 4 4 4 3 2 2 2 2 2 2 3 3 5 7 8 7 7 6 5 5 5 6 6 6 6 7 8 8 9 9 10 11 11 12 12 12 12 13 13 13
4 3 3 3 3 3 3 2 2 2 2 2 2 2 3 4 6 7 7 7 6 5 5 5 5 5 6 6 7 8 8 9 10 11 11 11 12 12 13 13 13 14 14
4 3 3 3 2 3 3 2 2 2 2 2 1 2 2 3 4 5 7 6 5 5 4 4 4 4 5 6 7 8 9 10 10 11 12 12 12 13 13 14 14 14 15
4 2 3 3 3 3 2 2 2 2 1 1 1 1 2 2 3 4 5 5 5 4 4 3 3 4 5 6 7 8 9 10 10 11 12 12 13 13 14 14 14 15 15
3 2 2 3 4 3 2 2 2 2 2 1 1 1 1 1 2 3 4 4 4 4 3 2 2 3 4 6 7 8 9 10 11 12 12 13 13 14 14 14 14 15 15
3 2 2 3 4 3 2 2 2 2 2 1 1 1 1 1 1 2 3 3 4 4 3 1 1 2 4 5 7 8 9 10 11 12 12 13 13 14 14 14 15 15 16
2 2 2 2 3 3 3 3 2 3 2 1 2 0 1 1 2 2 2 2 3 3 2 1 1 1 2 4 6 8 9 10 11 12 12 13 14 15 15 15 15 16 16
2 1 2 2 3 3 3 3 2 2 1 2 2 2 0 1 1 2 2 2 2 3 3 2 1 1 2 2 5 8 9 11 12 12 13 14 15 15 16 16 16 16 17
0 1 2 3 3 4 4 3 3 2 2 1 1 2 2 2 1 1 2 2 2 2 2 2 2 1 2 2 4 6 9 11 12 13 13 14 15 16 16 17 17 17 18
0 1 1 2 3 3 4 3 2 2 3 2 1 0 1 1 1 1 2 1 1 2 2 1 1 1 2 2 4 6 8 11 12 13 14 15 16 16 17 17 17 18 18
0 1 2 2 2 3 3 3 3 2 2 2 2 0 0 0 0 1 1 2 2 2 1 1 1 1 2 3 3 6 9 11 12 13 14 15 16 17 17 18 18 18 18
0 0 1 2 2 2 3 2 2 3 2 2 1 1 1 1 1 1 1 1 2 2 1 1 1 0 2 3 4 8 9 11 12 13 14 15 16 16 17 18 18 19 19
1 0 1 1 2 2 2 2 2 2 3 3 2 1 1 0 1 1 1 1 2 2 1 0 0 1 2 4 5 9 9 11 12 13 14 15 15 16 17 18 18 19 20
1 1 1 1 2 2 3 3 2 2 2 3 3 2 1 0 1 1 1 1 1 2 1 1 1 1 4 5 7 9 9 11 13 13 14 14 15 16 17 17 18 19 20
1 1 1 2 2 2 3 3 2 2 2 2 3 2 1 1 1 0 1 2 1 2 2 2 1 2 5 5 8 8 9 11 13 13 14 14 15 16 16 17 17 18 19
2 2 2 1 2 2 3 3 2 2 3 2 2 2 2 1 1 1 0 0 1 1 2 2 2 3 5 6 8 8 9 12 12 13 14 15 15 16 16 17 17 18 19
2 2 2 2 2 2 3 3 3 3 3 2 2 2 2 2 1 1 0 0 1 1 3 3 2 3 4 4 7 8 9 9 10 13 14 15 15 16 16 17 17 18 19
2 2 1 1 1 2 2 3 3 3 3 3 3 2 2 1 1 1 1 1 1 1 2 4 3 3 4 4 5 6 8 9 9 12 14 16 16 16 16 17 17 18 18
1 2 2 1 1 1 2 2 2 3 3 3 3 2 2 2 1 0 0 1 1 1 1 2 3 3 3 4 5 6 7 7 9 11 13 14 16 17 17 17 17 18 18
1 2 2 1 1 1 2 2 2 3 2 2 2 2 2 2 1 1 1 1 1 1 1 1 3 3 3 4 4 5 7 6 7 9 11 12 15 16 16 17 17 17 18
2 2 2 1 1 1 1 2 2 3 3 2 2 2 2 2 1 1 0 1 1 0 1 2 2 3 4 4 4 4 6 7 7 5 6 8 9 8 11 15 16 18 18
2 2 2 1 1 1 1 2 2 2 2 2 2 2 1 1 1 0 1 1 1 1 1 1 2 3 4 4 4 5 5 6 5 4 7 8 6 6 7 10 16 18 17
2 2 2 2 1 1 1 1 2 2 2 2 2 2 1 1 1 0 1 2 2 2 2 1 2 3 4 4 4 4 5 5 6 6 6 7 6 7 7 13 17 17 17
2 2 2 1 1 1 1 1 1 2 1 1 1 2 1 1 1 1 1 1 1 2 2 2 2 3 3 3 3 3 4 5 5 4 3 5 5 6 8 10 14 17 18
2 1 1 1 1 1 1 1 1 2 2 1 1 2 2 1 1 2 1 1 2 2 5 5 5 5 6 6 6 3 4 5 5 4 3 3 5 7 6 5 10 17 18
1 1 1 1 2 1 1 1 2 1 1 1 1 1 2 2 2 2 1 1 1 2 3 4 5 5 5 5 6 3 2 3 4 4 3 4 4 6 5 4 6 10 13
Wind_Direction
145 142 142 139 140 141 150 155 133 119 108 114 108 98 95 105 112 113 108 98 91 81 70 58 44 35 29 25 21 13 7 3 1 358 354 350 345 341 338 337 336 334 330
132 138 133 131 132 142 154 142 124 114 103 97 92 88 92 107 118 121 116 102 94 85 71 56 41 31 24 25 20 12 6 0 357 353 350 348 344 341 337 335 333 330 327
121 134 138 139 142 143 146 124 104 92 92 97 113 94 84 95 109 118 124 122 109 96 79 55 36 26 23 20 15 8 2 356 354 351 349 346 342 338 335 331 330 327 325
128 124 139 146 143 133 124 121 124 111 110 133 155 142 114 104 112 118 120 119 116 106 88 68 36 18 15 12 8 3 357 353 350 347 345 343 340 336 333 331 330 328 327
119 111 140 138 136 124 122 139 136 141 134 158 168 145 147 145 146 129 121 123 121 112 105 91 49 13 8 5 359 355 352 351 348 345 344 342 339 337 334 333 332 329 328
130 122 131 140 133 137 144 139 141 130 140 160 142 132 173 164 145 144 150 147 144 133 120 103 73 18 0 355 352 349 350 347 345 345 343 340 337 335 334 332 331 329 327
103 123 133 137 137 150 157 153 147 140 143 123 97 45 295 207 173 175 173 163 156 153 157 148 95 37 349 344 345 344 344 344 342 341 341 338 335 333 332 332 329 327 325
87 112 135 150 144 147 139 143 142 144 158 140 139 151 231 302 283 210 176 174 175 169 178 186 175 318 331 340 337 338 338 339 337 337 337 335 333 331 331 331 329 326 325
45 126 151 156 152 151 152 153 151 148 169 170 125 136 158 219 248 265 210 190 190 180 186 200 193 256 294 337 332 330 335 336 334 334 334 333 331 330 330 330 329 325 324
261 138 154 164 158 153 151 159 154 156 150 170 193 62 160 157 145 274 286 245 210 210 203 194 189 251 283 316 327 331 336 335 334 332 332 331 330 329 328 328 328 327 324
11 115 172 158 152 145 147 151 155 151 158 165 163 159 243 359 66 158 251 290 296 261 209 194 169 265 311 328 326 329 332 331 330 330 329 329 328 328 327 327 328 327 324
143 54 113 135 141 141 146 159 160 150 141 129 126 131 143 150 174 136 222 266 288 280 264 215 157 107 342 337 333 332 328 326 327 327 327 327 326 326 326 326 327 326 324
195 215 89 126 132 135 140 138 142 157 142 136 141 137 114 144 136 130 166 257 294 284 280 267 168 81 353 335 326 328 323 324 326 325 325 325 326 326 326 326 326 326 325
199 142 140 157 147 135 134 133 139 146 129 135 137 138 125 76 71 131 156 173 301 301 295 287 323 33 347 334 327 327 320 323 325 324 324 325 325 325 325 325 325 325 325
153 136 128 130 127 135 138 134 141 157 145 141 144 142 143 114 77 70 123 153 175 274 276 285 324 323 338 332 326 322 317 319 323 324 324 324 324 324 324 325 326 326 325
154 148 132 123 136 143 138 139 137 143 143 144 148 144 146 153 122 87 152 209 187 211 264 280 299 315 326 327 320 318 314 321 322 324 324 323 324 324 325 325 325 326 326
140 134 143 149 160 160 148 147 150 146 149 149 146 152 162 158 143 143 147 227 246 218 260 292 299 318 319 317 321 319 317 317 316 323 326 326 323 325 326 327 326 327 327
135 133 135 152 151 147 144 150 155 153 152 153 157 153 161 145 156 183 197 234 259 244 242 289 306 323 317 314 317 320 325 324 320 321 326 326 326 327 329 328 327 328 328
121 118 121 136 137 127 128 139 149 149 155 156 153 153 162 143 177 225 238 262 275 304 289 286 306 317 316 323 325 324 325 322 324 321 324 326 328 328 329 329 329 329 329
113 117 122 126 124 117 129 138 147 145 143 144 150 159 158 152 188 212 228 269 287 319 320 304 303 310 315 322 329 329 330 330 325 321 324 327 327 328 329 330 330 330 330
78 94 103 107 97 100 132 139 142 142 142 144 146 150 147 152 186 208 221 234 245 271 295 298 307 318 318 328 326 324 327 326 319 320 329 324 324 322 325 328 331 332 331
81 83 88 98 100 117 146 154 145 143 144 149 145 131 152 172 176 281 330 340 341 253 261 273 298 303 307 312 316 326 329 329 322 333 333 319 325 322 323 325 329 333 335
95 98 90 97 104 133 149 161 158 131 135 148 148 145 153 123 90 134 335 6 354 329 306 278 278 286 295 305 314 319 321 314 303 311 325 311 319 319 323 327 332 337 340
90 94 96 96 78 51 87 116 138 115 117 133 144 145 153 140 106 72 41 18 348 343 336 333 279 286 298 302 296 302 301 305 299 305 327 308 316 318 322 323 333 344 344
79 81 96 100 94 67 64 63 82 109 114 104 118 132 134 124 76 52 57 32 6 356 358 355 344 339 341 346 352 350 339 338 325 319 336 325 316 321 316 314 331 341 342
86 84 73 77 90 88 79 68 65 112 123 112 77 76 97 92 58 52 69 74 344 330 343 350 354 356 354 357 359 352 324 324 324 320 339 340 322 335 326 313 326 337 339
Height
1520 1521 1523 1524 1525 1526 1527 1528 1529 1529 1530 1530 1531 1531 1532 1532 1532 1532 1532 1533 1533 1532 1532 1531 1530 1530 1528 1527 1526 1525 1524 1522 1521 1519 1517 1516 1514 1512 1510 1508 1506 1504 1503
1519 1520 1521 1522 1523 1524 1525 1526 1527 1528 1528 1529 1529 1530 1530 1531 1531 1531 1531 1531 1531 1531 1531 1530 1529 1528 1527 1526 1525 1524 1522 1520 1519 1517 1515 1513 1511 1509 1507 1505 1503 1501 1499
1516 1517 1519 1520 1521 1522 1523 1524 1525 1526 1527 1527 1528 1528 1529 1529 1529 1529 1530 1530 1530 1530 1529 1529 1528 1527 1526 1525 1523 1522 1520 1518 1517 1515 1513 1511 1509 1507 1505 1502 1500 1498 1496
1514 1515 1516 1518 1519 1520 1521 1522 1523 1524 1525 1525 1526 1527 1527 1528 1528 1528 1528 1528 1528 1528 1528 1527 1526 1525 1524 1523 1521 1520 1518 1516 1514 1512 1511 1508 1506 1504 1501 1499 1496 1494 1492
1511 1512 1513 1515 1516 1517 1519 1520 1521 1522 1522 1523 1524 1525 1525 1526 1526 1526 1527 1527 1527 1526 1526 1525 1525 1524 1522 1521 1519 1518 1516 1514 1512 1510 1508 1506 1503 1501 1498 1495 1493 1490 1488
1508 1509 1510 1512 1513 1514 1516 1518 1519 1520 1521 1522 1522 1523 1523 1524 1524 1524 1525 1525 1525 1524 1524 1523 1522 1521 1520 1519 1517 1516 1514 1512 1510 1508 1505 1503 1500 1498 1495 1492 1489 1487 1484
1506 1507 1507 1509 1510 1511 1513 1515 1516 1517 1518 1519 1520 1520 1521 1522 1522 1522 1522 1523 1523 1522 1522 1521 1520 1519 1518 1516 1515 1513 1511 1509 1507 1505 1502 1500 1497 1495 1492 1489 1485 1483 1480
1503 1504 1505 1505 1507 1509 1510 1512 1514 1515 1515 1517 1517 1518 1519 1520 1519 1520 1520 1520 1520 1520 1519 1519 1518 1517 1515 1514 1512 1511 1509 1506 1504 1502 1499 1497 1494 1491 1488 1485 1482 1479 1476
1501 1502 1503 1503 1504 1506 1507 1509 1511 1512 1513 1514 1515 1517 1517 1516 1517 1518 1518 1518 1518 1517 1517 1516 1515 1514 1513 1511 1510 1508 1506 1503 1501 1499 1496 1493 1491 1488 1485 1482 1478 1475 1472
1498 1499 1500 1501 1502 1503 1505 1507 1508 1510 1511 1512 1513 1514 1515 1515 1515 1515 1516 1516 1515 1515 1514 1514 1513 1512 1510 1509 1507 1505 1503 1501 1498 1495 1493 1490 1487 1484 1481 1478 1474 1471 1468
1494 1496 1498 1498 1499 1500 1502 1504 1506 1507 1508 1509 1510 1511 1512 1513 1513 1513 1512 1513 1513 1512 1512 1511 1510 1509 1508 1506 1504 1502 1500 1498 1495 1492 1490 1487 1484 1481 1477 1474 1470 1467 1463
1491 1493 1494 1496 1497 1498 1499 1501 1503 1504 1505 1506 1507 1509 1509 1510 1510 1510 1510 1509 1509 1509 1509 1508 1507 1506 1505 1503 1501 1499 1497 1495 1492 1489 1486 1483 1480 1477 1474 1470 1467 1463 1459
1488 1489 1491 1493 1494 1495 1496 1498 1499 1500 1501 1503 1505 1506 1507 1507 1508 1508 1508 1507 1506 1506 1505 1505 1504 1503 1502 1500 1498 1496 1494 1491 1489 1486 1483 1480 1477 1473 1470 1466 1463 1459 1455
1485 1486 1488 1490 1491 1493 1494 1495 1497 1498 1498 1500 1501 1503 1503 1505 1505 1505 1505 1504 1503 1502 1502 1502 1501 1500 1499 1497 1495 1493 1491 1488 1486 1483 1480 1477 1473 1470 1466 1463 1459 1455 1451
1482 1484 1485 1486 1488 1489 1491 1493 1494 1495 1496 1497 1498 1499 1500 1501 1502 1502 1502 1502 1502 1500 1499 1499 1498 1497 1496 1494 1492 1490 1487 1485 1482 1479 1476 1473 1470 1467 1463 1459 1455 1451 1447
1480 1481 1482 1483 1485 1487 1488 1490 1491 1493 1493 1494 1496 1497 1497 1498 1499 1499 1499 1499 1499 1498 1496 1495 1495 1494 1493 1491 1489 1487 1484 1482 1479 1476 1473 1470 1467 1463 1459 1456 1451 1447 1443
1477 1478 1479 1481 1483 1484 1486 1487 1488 1490 1491 1491 1493 1494 1494 1495 1495 1496 1496 1496 1496 1495 1493 1492 1492 1491 1489 1487 1485 1484 1481 1478 1475 1472 1469 1466 1463 1460 1456 1452 1448 1444 1439
1474 1475 1477 1479 1480 1482 1483 1484 1485 1487 1488 1489 1489 1490 1491 1492 1492 1493 1493 1493 1492 1492 1491 1489 1488 1487 1486 1484 1482 1480 1478 1475 1472 1469 1466 1463 1460 1456 1452 1448 1444 1440 1436
1472 1473 1475 1476 1478 1479 1480 1481 1483 1484 1485 1486 1487 1488 1488 1489 1489 1490 1490 1490 1490 1489 1488 1487 1485 1484 1483 1481 1479 1477 1475 1472 1469 1466 1463 1460 1456 1452 1448 1444 1440 1436 1432
1470 1471 1473 1474 1476 1477 1478 1479 1480 1481 1483 1484 1484 1485 1486 1486 1486 1487 1487 1487 1486 1486 1485 1484 1483 1481 1480 1478 1476 1473 1470 1468 1465 1463 1459 1456 1453 1449 1445 1441 1437 1433 1429
1468 1469 1471 1472 1473 1474 1475 1477 1478 1479 1480 1481 1482 1482 1483 1484 1484 1484 1484 1484 1484 1483 1483 1482 1480 1478 1477 1475 1473 1470 1468 1465 1462 1459 1455 1453 1449 1446 1442 1438 1433 1429 1425
1466 1467 1469 1470 1471 1472 1474 1475 1476 1476 1477 1478 1479 1480 1481 1481 1481 1481 1482 1482 1481 1481 1480 1479 1477 1476 1474 1473 1471 1468 1466 1462 1458 1457 1453 1450 1447 1443 1439 1435 1431 1427 1423
1464 1465 1467 1468 1469 1471 1472 1473 1474 1474 1475 1476 1476 1477 1478 1478 1479 1479 1479 1479 1479 1478 1478 1477 1475 1474 1472 1471 1469 1467 1464 1462 1458 1455 1451 1446 1444 1440 1437 1433 1429 1425 1420
1463 1464 1465 1466 1467 1469 1470 1471 1471 1472 1473 1474 1474 1475 1476 1476 1476 1476 1476 1476 1476 1475 1475 1474 1474 1472 1471 1469 1468 1466 1463 1460 1457 1454 1450 1444 1440 1437 1434 1430 1427 1423 1419
1461 1462 1463 1464 1465 1466 1468 1469 1469 1470 1471 1471 1472 1473 1473 1474 1474 1474 1474 1473 1473 1473 1473 1472 1471 1470 1469 1467 1465 1463 1460 1457 1453 1450 1448 1444 1439 1434 1430 1428 1425 1421 1417
1460 1461 1462 1462 1463 1464 1466 1467 1468 1468 1469 1469 1470 1471 1471 1472 1472 1472 1472 1471 1471 1470 1470 1469 1469 1468 1467 1465 1463 1461 1458 1456 1452 1449 1446 1443 1438 1434 1428 1425 1423 1419 1415